TimeEST,TemperatureF,Dew PointF,Humidity,Sea Level PressureIn,VisibilityMPH,Wind Direction,Wind SpeedMPH,Gust SpeedMPH,PrecipitationIn,Events,Conditions,WindDirDegrees,DateUTC
12:15 AM,57.2,57.2,100,30.04,10.0,Calm,Calm,-,0.05,Rain,Heavy Rain,0,2013-12-23 05:15:00
12:35 AM,55.4,55.4,100,30.04,10.0,SW,3.5,-,0.02,Rain,Rain,230,2013-12-23 05:35:00
12:55 AM,57.2,57.2,100,30.05,7.0,West,3.5,-,0.08,Rain,Heavy Rain,260,2013-12-23 05:55:00
1:15 AM,55.4,55.4,100,30.04,10.0,West,4.6,-,0.02,Rain,Light Rain,260,2013-12-23 06:15:00
1:35 AM,55.4,55.4,100,30.05,10.0,West,5.8,-,0.02,Rain,Rain,260,2013-12-23 06:35:00
1:55 AM,55.4,55.4,100,30.05,10.0,WSW,8.1,-,0.01,Rain,Rain,240,2013-12-23 06:55:00
2:15 AM,53.6,53.6,100,30.05,10.0,WSW,6.9,-,0.02,Rain,Rain,240,2013-12-23 07:15:00
2:35 AM,53.6,53.6,100,30.06,10.0,West,4.6,-,0.03,Rain,Rain,270,2013-12-23 07:35:00
2:55 AM,53.6,53.6,100,30.03,10.0,West,3.5,-,0.02,Rain,Rain,270,2013-12-23 07:55:00
3:15 AM,53.6,53.6,100,30.06,10.0,SW,3.5,-,0.01,Rain,Rain,220,2013-12-23 08:15:00
3:35 AM,53.6,53.6,100,30.05,10.0,SW,4.6,-,0.03,Rain,Rain,230,2013-12-23 08:35:00
3:55 AM,53.6,53.6,100,30.04,7.0,Calm,Calm,-,0.02,Rain,Rain,0,2013-12-23 08:55:00
4:15 AM,53.6,53.6,100,30.05,10.0,SW,4.6,-,N/A,Rain,Light Rain,220,2013-12-23 09:15:00
4:35 AM,53.6,53.6,100,30.02,10.0,South,3.5,-,0.01,Rain,Light Rain,170,2013-12-23 09:35:00
4:55 AM,53.6,53.6,100,30.03,10.0,SW,3.5,-,0.02,Rain,Rain,220,2013-12-23 09:55:00
5:15 AM,53.6,53.6,100,30.05,10.0,West,6.9,-,N/A,Rain,Rain,280,2013-12-23 10:15:00
5:35 AM,53.6,53.6,100,30.04,10.0,WSW,3.5,-,N/A,Rain,Light Rain,240,2013-12-23 10:35:00
5:55 AM,51.8,51.8,100,30.02,10.0,SSE,5.8,-,N/A,,Overcast,160,2013-12-23 10:55:00
6:15 AM,51.8,51.8,100,30.02,10.0,Calm,Calm,-,N/A,,Drizzle,0,2013-12-23 11:15:00
6:35 AM,51.8,51.8,100,30.04,10.0,WNW,6.9,-,N/A,Rain,Light Rain,290,2013-12-23 11:35:00
6:55 AM,51.8,51.8,100,30.04,10.0,West,3.5,-,N/A,,Overcast,260,2013-12-23 11:55:00
7:15 AM,51.8,51.8,100,30.04,10.0,SW,3.5,-,N/A,,Overcast,230,2013-12-23 12:15:00
7:35 AM,53.6,53.6,100,30.05,10.0,WSW,8.1,-,N/A,,Overcast,250,2013-12-23 12:35:00
7:55 AM,53.6,53.6,100,30.07,10.0,WSW,6.9,-,N/A,,Overcast,250,2013-12-23 12:55:00
8:15 AM,53.6,53.6,100,30.08,10.0,WSW,6.9,-,N/A,,Overcast,250,2013-12-23 13:15:00
8:35 AM,53.6,53.6,100,30.08,10.0,WSW,8.1,-,N/A,Rain,Light Rain,250,2013-12-23 13:35:00
8:55 AM,53.6,51.8,94,30.09,10.0,West,8.1,-,N/A,,Overcast,270,2013-12-23 13:55:00
9:15 AM,51.8,50.0,94,30.10,10.0,West,11.5,16.1,N/A,,Overcast,280,2013-12-23 14:15:00
9:35 AM,51.8,50.0,94,30.11,10.0,West,12.7,17.3,N/A,,Overcast,270,2013-12-23 14:35:00
9:55 AM,51.8,48.2,88,30.09,10.0,WSW,8.1,18.4,N/A,,Overcast,250,2013-12-23 14:55:00
10:15 AM,51.8,48.2,88,30.11,10.0,West,9.2,-,N/A,,Overcast,280,2013-12-23 15:15:00
10:35 AM,51.8,48.2,88,30.11,10.0,West,8.1,-,N/A,,Overcast,280,2013-12-23 15:35:00
10:55 AM,51.8,48.2,88,30.12,10.0,WNW,8.1,-,N/A,,Overcast,300,2013-12-23 15:55:00
11:15 AM,51.8,48.2,88,30.12,10.0,NW,6.9,-,N/A,,Overcast,310,2013-12-23 16:15:00
11:35 AM,50.0,44.6,82,30.14,10.0,WNW,15.0,-,N/A,,Overcast,300,2013-12-23 16:35:00
11:55 AM,48.2,42.8,82,30.15,10.0,NW,17.3,-,N/A,,Overcast,310,2013-12-23 16:55:00
12:15 PM,46.4,42.8,87,30.13,10.0,NW,13.8,20.7,N/A,,Overcast,310,2013-12-23 17:15:00
12:35 PM,46.4,41.0,81,30.13,10.0,WNW,12.7,-,N/A,,Overcast,300,2013-12-23 17:35:00
12:55 PM,46.4,39.2,76,30.13,10.0,WNW,13.8,-,N/A,,Overcast,300,2013-12-23 17:55:00
1:15 PM,44.6,39.2,81,30.14,10.0,WNW,13.8,-,N/A,,Overcast,300,2013-12-23 18:15:00
1:35 PM,44.6,39.2,81,30.14,10.0,NW,11.5,-,N/A,,Overcast,310,2013-12-23 18:35:00
1:55 PM,44.6,37.4,76,30.15,10.0,WNW,16.1,-,N/A,,Mostly Cloudy,300,2013-12-23 18:55:00
2:15 PM,44.6,37.4,76,30.15,10.0,WNW,16.1,19.6,N/A,,Scattered Clouds,300,2013-12-23 19:15:00
2:35 PM,44.6,35.6,71,30.16,10.0,NW,17.3,-,N/A,,Mostly Cloudy,310,2013-12-23 19:35:00
2:55 PM,44.6,37.4,76,30.17,10.0,WNW,12.7,-,N/A,,Overcast,290,2013-12-23 19:55:00
3:15 PM,42.8,35.6,76,30.16,10.0,WNW,11.5,-,N/A,,Overcast,290,2013-12-23 20:15:00
3:35 PM,42.8,35.6,76,30.17,10.0,NW,10.4,18.4,N/A,,Overcast,310,2013-12-23 20:35:00
3:55 PM,42.8,35.6,76,30.17,10.0,WNW,12.7,-,N/A,,Overcast,300,2013-12-23 20:55:00
4:15 PM,41.0,35.6,81,30.17,10.0,NW,8.1,-,N/A,,Overcast,320,2013-12-23 21:15:00
4:35 PM,41.0,35.6,81,30.18,10.0,WNW,9.2,-,N/A,,Overcast,290,2013-12-23 21:35:00
4:55 PM,39.2,35.6,87,30.18,10.0,NW,6.9,-,N/A,,Overcast,320,2013-12-23 21:55:00
5:15 PM,39.2,33.8,81,30.18,10.0,NNW,8.1,-,N/A,,Overcast,330,2013-12-23 22:15:00
5:35 PM,39.2,33.8,81,30.18,10.0,NNW,5.8,-,N/A,,Mostly Cloudy,340,2013-12-23 22:35:00
5:55 PM,37.4,33.8,87,30.19,10.0,NNW,9.2,-,N/A,,Mostly Cloudy,340,2013-12-23 22:55:00
6:15 PM,37.4,30.2,75,30.20,10.0,NW,10.4,-,N/A,,Scattered Clouds,320,2013-12-23 23:15:00
6:35 PM,37.4,30.2,75,30.21,10.0,NW,8.1,-,N/A,,Clear,320,2013-12-23 23:35:00
6:55 PM,37.4,30.2,75,30.21,10.0,NW,9.2,-,N/A,,Scattered Clouds,320,2013-12-23 23:55:00
7:15 PM,35.6,28.4,75,30.22,10.0,NW,6.9,-,N/A,,Mostly Cloudy,320,2013-12-24 00:15:00
7:35 PM,35.6,28.4,75,30.22,10.0,NNW,6.9,-,N/A,,Overcast,330,2013-12-24 00:35:00
7:55 PM,35.6,28.4,75,30.22,10.0,NW,8.1,-,N/A,,Mostly Cloudy,310,2013-12-24 00:55:00
8:15 PM,35.6,26.6,70,30.22,10.0,NW,6.9,-,N/A,,Mostly Cloudy,320,2013-12-24 01:15:00
8:35 PM,33.8,26.6,75,30.23,10.0,NW,6.9,-,N/A,,Mostly Cloudy,320,2013-12-24 01:35:00
8:55 PM,33.8,26.6,75,30.23,10.0,NW,5.8,-,N/A,,Overcast,320,2013-12-24 01:55:00
9:15 PM,33.8,26.6,75,30.23,10.0,NNW,4.6,-,N/A,,Overcast,340,2013-12-24 02:15:00
9:35 PM,33.8,26.6,75,30.24,10.0,North,4.6,-,N/A,,Mostly Cloudy,350,2013-12-24 02:35:00
9:55 PM,33.8,26.6,75,30.24,10.0,North,4.6,-,N/A,,Mostly Cloudy,350,2013-12-24 02:55:00
10:15 PM,32.0,26.6,80,30.24,10.0,NNW,4.6,-,N/A,,Mostly Cloudy,330,2013-12-24 03:15:00
10:35 PM,32.0,24.8,75,30.24,10.0,NNW,3.5,-,N/A,,Scattered Clouds,340,2013-12-24 03:35:00
10:55 PM,30.2,24.8,80,30.24,10.0,NNW,4.6,-,N/A,,Clear,340,2013-12-24 03:55:00
11:15 PM,30.2,24.8,80,30.24,10.0,NNW,5.8,-,N/A,,Clear,340,2013-12-24 04:15:00
11:35 PM,30.2,24.8,80,30.23,10.0,NNW,4.6,-,N/A,,Clear,330,2013-12-24 04:35:00
11:55 PM,30.2,24.8,80,30.23,10.0,NNW,3.5,-,N/A,,Clear,340,2013-12-24 04:55:00